QPF
0.00 0.00 0.00 0.00 0.00 0.00 0.00 0.00 0.00 0.00 0.00 0.00 0.02 0.02 0.00 0.00 0.01 0.04 0.04 0.04 0.03 0.02 0.01 0.01 0.00 0.00 0.00 0.00 0.00 0.00 0.00 0.00 0.00 0.00 0.00 0.00 0.00 0.00 0.00 0.00 0.00 0.00 0.00
0.00 0.00 0.00 0.00 0.00 0.00 0.00 0.00 0.00 0.00 0.00 0.00 0.00 0.00 0.00 0.00 0.01 0.03 0.03 0.02 0.02 0.01 0.01 0.00 0.00 0.00 0.00 0.00 0.00 0.00 0.00 0.00 0.00 0.00 0.00 0.00 0.00 0.00 0.00 0.00 0.00 0.00 0.00
0.00 0.00 0.00 0.00 0.00 0.00 0.00 0.00 0.00 0.00 0.00 0.00 0.00 0.00 0.00 0.00 0.01 0.02 0.02 0.01 0.00 0.00 0.00 0.00 0.00 0.00 0.00 0.00 0.00 0.00 0.00 0.00 0.00 0.00 0.00 0.00 0.00 0.00 0.00 0.00 0.00 0.00 0.00
0.00 0.00 0.00 0.00 0.00 0.00 0.00 0.00 0.00 0.00 0.00 0.00 0.00 0.00 0.00 0.00 0.00 0.00 0.00 0.00 0.00 0.00 0.00 0.00 0.00 0.00 0.00 0.00 0.00 0.00 0.00 0.00 0.00 0.00 0.00 0.00 0.00 0.00 0.00 0.00 0.00 0.00 0.00
0.00 0.00 0.00 0.00 0.00 0.00 0.00 0.00 0.00 0.00 0.00 0.00 0.00 0.00 0.00 0.00 0.00 0.00 0.00 0.00 0.00 0.00 0.00 0.00 0.00 0.00 0.00 0.00 0.00 0.00 0.00 0.00 0.00 0.00 0.00 0.00 0.00 0.00 0.00 0.00 0.00 0.00 0.00
0.00 0.00 0.00 0.00 0.00 0.00 0.00 0.00 0.00 0.00 0.00 0.00 0.00 0.00 0.00 0.00 0.00 0.00 0.00 0.00 0.00 0.00 0.00 0.00 0.00 0.00 0.00 0.00 0.00 0.00 0.00 0.00 0.00 0.00 0.00 0.00 0.00 0.00 0.00 0.00 0.00 0.00 0.00
0.00 0.00 0.00 0.00 0.00 0.00 0.00 0.00 0.00 0.00 0.00 0.00 0.00 0.00 0.00 0.00 0.00 0.00 0.00 0.00 0.00 0.00 0.00 0.00 0.00 0.00 0.00 0.00 0.00 0.00 0.00 0.00 0.00 0.00 0.00 0.00 0.00 0.00 0.00 0.00 0.00 0.00 0.00
0.00 0.00 0.00 0.00 0.00 0.00 0.00 0.00 0.00 0.00 0.00 0.00 0.00 0.00 0.00 0.00 0.00 0.00 0.00 0.00 0.00 0.00 0.00 0.00 0.00 0.00 0.00 0.00 0.00 0.00 0.00 0.00 0.00 0.00 0.00 0.00 0.00 0.00 0.00 0.00 0.00 0.00 0.00
0.00 0.00 0.00 0.00 0.00 0.00 0.00 0.00 0.00 0.00 0.00 0.00 0.00 0.00 0.00 0.00 0.00 0.00 0.00 0.00 0.00 0.00 0.00 0.00 0.00 0.00 0.00 0.00 0.00 0.00 0.00 0.00 0.00 0.00 0.00 0.00 0.00 0.00 0.00 0.00 0.00 0.00 0.00
0.00 0.00 0.00 0.00 0.00 0.00 0.00 0.00 0.00 0.00 0.00 0.00 0.00 0.00 0.00 0.00 0.00 0.00 0.00 0.00 0.00 0.00 0.00 0.00 0.00 0.00 0.00 0.00 0.00 0.00 0.00 0.00 0.00 0.00 0.00 0.00 0.00 0.00 0.00 0.00 0.00 0.00 0.00
0.00 0.00 0.00 0.00 0.00 0.00 0.00 0.00 0.00 0.00 0.00 0.00 0.00 0.00 0.00 0.00 0.00 0.00 0.00 0.00 0.00 0.00 0.00 0.00 0.00 0.00 0.00 0.00 0.00 0.00 0.00 0.00 0.00 0.00 0.00 0.00 0.00 0.00 0.00 0.00 0.00 0.00 0.00
0.00 0.00 0.00 0.00 0.00 0.00 0.00 0.00 0.00 0.00 0.00 0.00 0.00 0.00 0.00 0.00 0.00 0.00 0.00 0.00 0.00 0.00 0.00 0.00 0.00 0.00 0.00 0.00 0.00 0.00 0.00 0.00 0.00 0.00 0.00 0.00 0.00 0.00 0.00 0.00 0.00 0.00 0.00
0.00 0.00 0.00 0.00 0.00 0.00 0.00 0.00 0.00 0.00 0.00 0.00 0.00 0.00 0.00 0.00 0.00 0.00 0.00 0.00 0.00 0.00 0.00 0.00 0.00 0.00 0.00 0.00 0.00 0.00 0.00 0.00 0.00 0.00 0.00 0.00 0.00 0.00 0.00 0.00 0.00 0.00 0.00
0.00 0.00 0.00 0.00 0.00 0.00 0.00 0.00 0.00 0.00 0.00 0.00 0.00 0.00 0.00 0.00 0.00 0.00 0.00 0.00 0.00 0.00 0.00 0.00 0.00 0.00 0.00 0.00 0.00 0.00 0.00 0.00 0.00 0.00 0.00 0.00 0.00 0.00 0.00 0.00 0.00 0.00 0.00
0.00 0.00 0.00 0.00 0.00 0.00 0.00 0.00 0.00 0.00 0.00 0.00 0.00 0.00 0.00 0.00 0.00 0.00 0.00 0.00 0.00 0.00 0.00 0.00 0.00 0.00 0.00 0.00 0.00 0.00 0.00 0.00 0.00 0.00 0.00 0.00 0.00 0.00 0.00 0.00 0.00 0.00 0.00
0.00 0.00 0.00 0.00 0.00 0.00 0.00 0.00 0.00 0.00 0.00 0.00 0.00 0.00 0.00 0.00 0.00 0.00 0.00 0.00 0.00 0.00 0.00 0.00 0.00 0.00 0.00 0.00 0.00 0.00 0.00 0.00 0.00 0.00 0.00 0.00 0.00 0.00 0.00 0.00 0.00 0.00 0.00
0.00 0.00 0.00 0.00 0.00 0.00 0.00 0.00 0.00 0.00 0.00 0.00 0.00 0.00 0.00 0.00 0.00 0.00 0.00 0.00 0.00 0.00 0.00 0.00 0.00 0.00 0.00 0.00 0.00 0.00 0.00 0.00 0.00 0.00 0.00 0.00 0.00 0.00 0.00 0.00 0.00 0.00 0.00
0.00 0.00 0.00 0.00 0.00 0.00 0.00 0.00 0.00 0.00 0.00 0.00 0.00 0.00 0.00 0.00 0.00 0.00 0.00 0.00 0.00 0.00 0.00 0.00 0.00 0.00 0.00 0.00 0.00 0.00 0.00 0.00 0.00 0.00 0.00 0.00 0.00 0.00 0.00 0.00 0.00 0.00 0.00
0.00 0.00 0.00 0.00 0.00 0.00 0.00 0.00 0.00 0.00 0.00 0.00 0.00 0.00 0.00 0.00 0.00 0.00 0.00 0.00 0.00 0.00 0.00 0.00 0.00 0.00 0.00 0.00 0.00 0.00 0.00 0.00 0.00 0.00 0.00 0.00 0.00 0.00 0.00 0.00 0.00 0.00 0.00
0.00 0.00 0.00 0.00 0.00 0.00 0.00 0.00 0.00 0.00 0.00 0.00 0.00 0.00 0.00 0.00 0.00 0.00 0.00 0.00 0.00 0.00 0.00 0.00 0.00 0.00 0.00 0.00 0.00 0.00 0.00 0.00 0.00 0.00 0.00 0.00 0.00 0.00 0.00 0.00 0.00 0.00 0.00
0.00 0.00 0.00 0.00 0.00 0.00 0.00 0.00 0.00 0.00 0.00 0.00 0.00 0.00 0.00 0.00 0.00 0.00 0.00 0.00 0.00 0.00 0.00 0.00 0.00 0.00 0.00 0.00 0.00 0.00 0.00 0.00 0.00 0.00 0.00 0.00 0.00 0.00 0.00 0.00 0.00 0.00 0.00
0.00 0.00 0.00 0.00 0.00 0.00 0.00 0.00 0.00 0.00 0.00 0.00 0.00 0.00 0.00 0.00 0.00 0.00 0.00 0.00 0.00 0.00 0.00 0.00 0.00 0.00 0.00 0.00 0.00 0.00 0.00 0.00 0.00 0.00 0.00 0.00 0.00 0.00 0.00 0.00 0.00 0.00 0.00
0.00 0.00 0.00 0.00 0.00 0.00 0.00 0.00 0.00 0.00 0.00 0.00 0.00 0.00 0.00 0.00 0.00 0.00 0.00 0.00 0.00 0.00 0.00 0.00 0.00 0.00 0.00 0.00 0.00 0.00 0.00 0.00 0.00 0.00 0.00 0.00 0.00 0.00 0.00 0.00 0.00 0.00 0.00
0.00 0.00 0.00 0.00 0.00 0.00 0.00 0.00 0.00 0.00 0.00 0.00 0.00 0.00 0.00 0.00 0.00 0.00 0.00 0.00 0.00 0.00 0.00 0.00 0.00 0.00 0.00 0.00 0.00 0.00 0.00 0.00 0.00 0.00 0.00 0.00 0.00 0.00 0.00 0.00 0.00 0.00 0.00
0.00 0.00 0.00 0.00 0.00 0.00 0.00 0.00 0.00 0.00 0.00 0.00 0.00 0.00 0.00 0.00 0.00 0.00 0.00 0.00 0.00 0.00 0.00 0.00 0.00 0.00 0.00 0.00 0.00 0.00 0.00 0.00 0.00 0.00 0.00 0.00 0.00 0.00 0.00 0.00 0.00 0.00 0.00
0.00 0.00 0.00 0.00 0.00 0.00 0.00 0.00 0.00 0.00 0.00 0.00 0.00 0.00 0.00 0.00 0.00 0.00 0.00 0.00 0.00 0.00 0.00 0.00 0.00 0.00 0.00 0.00 0.00 0.00 0.00 0.00 0.00 0.00 0.00 0.00 0.00 0.00 0.00 0.00 0.00 0.00 0.00
MSLP
1024.79 1024.03 1023.62 1023.35 1022.95 1022.51 1022.00 1021.59 1020.96 1020.40 1019.85 1019.54 1019.28 1019.23 1019.35 1019.56 1019.50 1019.82 1020.06 1020.27 1020.75 1021.38 1021.55 1021.91 1022.43 1022.63 1023.03 1023.16 1023.21 1023.42 1023.57 1023.65 1023.75 1023.74 1023.93 1024.46 1024.75 1025.17 1024.80 1024.21 1023.97 1023.74 1023.38
1025.05 1024.63 1024.22 1023.72 1023.23 1022.79 1022.44 1021.92 1021.39 1020.94 1020.59 1020.33 1020.24 1020.05 1020.38 1020.59 1020.44 1020.88 1020.95 1021.35 1021.78 1022.21 1022.55 1022.76 1023.22 1023.44 1023.65 1023.80 1023.95 1024.21 1024.36 1024.61 1024.85 1025.05 1024.92 1025.37 1025.36 1025.60 1025.22 1024.57 1024.37 1024.07 1023.66
1024.46 1024.22 1024.17 1023.94 1023.49 1023.07 1022.79 1022.39 1021.86 1021.56 1021.41 1021.16 1021.11 1021.05 1021.33 1021.38 1021.57 1021.68 1022.15 1022.48 1022.83 1023.28 1023.52 1023.81 1024.09 1024.29 1024.59 1024.68 1024.93 1025.20 1025.11 1025.25 1025.62 1025.74 1025.98 1025.91 1026.01 1025.84 1025.29 1025.15 1024.70 1024.46 1023.71
1025.08 1024.80 1024.57 1024.43 1024.17 1023.79 1023.32 1022.94 1022.66 1022.52 1022.18 1021.97 1021.65 1022.01 1021.92 1022.13 1022.32 1022.72 1022.84 1023.39 1023.97 1024.24 1024.05 1024.88 1025.12 1025.16 1025.32 1025.74 1025.59 1025.92 1025.92 1025.63 1026.03 1026.35 1026.46 1026.78 1026.73 1026.33 1025.95 1025.64 1024.93 1024.79 1023.68
1025.47 1025.28 1025.14 1025.01 1024.74 1024.36 1023.96 1023.70 1023.54 1023.25 1023.04 1022.97 1022.86 1023.05 1022.82 1022.81 1022.99 1023.25 1023.51 1023.61 1024.18 1024.90 1025.52 1025.84 1025.83 1026.11 1026.14 1026.04 1026.09 1026.56 1026.25 1026.46 1026.75 1027.05 1027.30 1027.12 1027.25 1026.80 1026.70 1026.67 1026.19 1025.48 1024.68
1026.09 1025.83 1025.72 1025.47 1025.19 1025.01 1024.84 1024.57 1024.36 1024.25 1024.11 1024.05 1024.07 1023.86 1023.86 1023.88 1023.86 1024.04 1023.81 1024.39 1025.15 1025.83 1026.52 1026.52 1026.49 1026.69 1026.68 1026.38 1026.68 1026.96 1026.81 1026.93 1027.48 1027.62 1027.77 1027.84 1027.78 1027.67 1027.31 1027.13 1026.54 1026.22 1025.95
1026.43 1026.37 1026.22 1026.17 1025.95 1025.82 1025.70 1025.56 1025.61 1025.59 1025.54 1025.44 1025.29 1025.06 1024.98 1024.92 1024.95 1024.66 1024.88 1025.30 1025.92 1026.62 1026.85 1027.12 1027.39 1027.15 1027.11 1027.32 1027.38 1027.60 1027.78 1027.81 1028.00 1028.18 1028.07 1028.25 1028.16 1028.02 1027.77 1027.28 1026.95 1026.97 1026.76
1026.78 1026.74 1026.66 1026.60 1026.53 1026.54 1026.42 1026.48 1026.54 1026.45 1026.24 1026.11 1026.10 1026.02 1025.84 1025.75 1025.82 1025.81 1025.91 1026.47 1026.54 1027.33 1027.85 1028.10 1027.98 1027.69 1027.41 1027.63 1027.83 1028.24 1028.73 1028.64 1028.36 1028.38 1028.40 1028.51 1028.50 1028.46 1028.10 1027.78 1027.47 1027.08 1026.45
1027.18 1027.19 1027.03 1026.94 1026.95 1027.04 1026.92 1027.12 1027.07 1026.95 1027.01 1026.91 1026.82 1026.74 1026.52 1026.28 1026.43 1026.46 1026.62 1027.11 1027.01 1028.09 1028.49 1028.49 1028.19 1027.90 1028.05 1027.97 1028.09 1028.39 1028.71 1029.06 1028.99 1028.76 1028.67 1028.75 1028.96 1028.66 1028.12 1027.84 1027.52 1027.17 1027.14
1027.31 1027.41 1027.29 1027.23 1027.32 1027.36 1027.37 1027.57 1027.60 1027.60 1027.87 1027.91 1027.69 1027.56 1027.36 1026.92 1026.85 1026.78 1026.96 1027.32 1027.85 1028.46 1028.60 1028.89 1028.51 1028.39 1028.30 1028.42 1028.33 1028.52 1029.04 1029.49 1029.38 1029.67 1029.59 1029.55 1029.27 1028.92 1028.45 1028.17 1028.19 1028.12 1027.89
1027.47 1027.53 1027.51 1027.43 1027.50 1027.55 1027.69 1027.87 1028.01 1028.15 1028.40 1028.53 1028.32 1028.34 1027.90 1027.77 1027.28 1027.29 1027.35 1027.66 1028.36 1028.81 1029.27 1029.36 1029.16 1028.73 1028.56 1028.31 1028.61 1028.92 1029.10 1029.49 1029.69 1029.99 1029.90 1029.71 1029.57 1029.36 1029.16 1028.80 1028.46 1028.35 1028.46
1027.71 1027.89 1027.86 1027.80 1027.75 1027.65 1027.69 1028.01 1028.22 1028.38 1028.75 1028.98 1028.93 1028.76 1028.42 1028.30 1028.06 1027.66 1027.71 1028.24 1028.64 1029.10 1029.56 1029.65 1029.50 1029.10 1028.87 1029.09 1029.23 1029.24 1029.55 1030.13 1030.13 1030.17 1030.22 1030.18 1029.97 1029.79 1029.59 1029.30 1029.21 1029.04 1028.67
1027.90 1028.16 1028.22 1028.21 1028.10 1027.98 1028.02 1028.20 1028.51 1028.66 1029.05 1029.07 1029.13 1029.30 1029.36 1029.09 1028.58 1028.08 1028.27 1028.53 1028.89 1029.40 1029.61 1029.38 1029.36 1029.44 1029.53 1029.57 1029.65 1029.92 1030.49 1030.24 1030.32 1030.43 1030.49 1030.48 1030.50 1030.27 1029.90 1029.62 1029.54 1029.30 1029.28
1028.06 1028.06 1027.96 1028.10 1028.09 1028.02 1028.12 1028.30 1028.56 1029.02 1029.00 1029.23 1029.50 1029.60 1029.64 1029.38 1029.26 1029.41 1029.41 1029.52 1029.50 1029.81 1029.80 1029.93 1029.56 1029.69 1029.95 1030.71 1031.23 1031.29 1031.05 1030.48 1030.53 1030.64 1030.69 1030.66 1030.43 1030.33 1030.78 1030.40 1030.24 1029.91 1029.66
1027.36 1027.51 1027.63 1027.65 1027.79 1027.98 1027.97 1028.05 1028.18 1028.57 1028.56 1028.97 1029.33 1029.43 1029.57 1029.68 1029.38 1029.29 1029.48 1029.94 1030.02 1030.06 1030.59 1030.89 1031.07 1031.47 1031.96 1032.28 1032.42 1032.31 1031.58 1030.91 1030.79 1030.94 1031.00 1030.97 1031.06 1031.23 1031.32 1031.18 1030.94 1030.79 1031.13
1026.56 1026.86 1027.05 1027.40 1027.75 1027.96 1028.21 1028.22 1027.85 1028.00 1027.99 1027.92 1028.15 1028.60 1029.10 1028.84 1028.69 1028.89 1028.99 1029.11 1029.18 1029.49 1030.71 1032.10 1032.74 1033.12 1033.34 1033.32 1033.15 1032.70 1032.25 1031.78 1031.40 1031.40 1031.54 1031.61 1031.82 1032.07 1032.07 1031.91 1031.73 1031.78 1032.15
1025.79 1026.09 1026.48 1026.84 1027.27 1027.62 1027.94 1027.94 1028.01 1027.94 1027.91 1028.02 1027.97 1028.10 1028.35 1028.51 1028.54 1028.77 1028.80 1028.76 1028.73 1029.52 1030.91 1032.14 1032.88 1033.52 1033.49 1033.08 1032.71 1032.41 1032.38 1032.23 1031.46 1031.93 1032.29 1032.45 1032.56 1032.58 1032.45 1032.90 1032.80 1032.89 1033.12
1025.16 1025.39 1025.85 1026.17 1026.51 1026.94 1027.22 1027.57 1027.78 1027.96 1028.20 1028.37 1028.13 1028.27 1028.08 1028.45 1028.71 1028.83 1029.06 1029.35 1029.64 1029.87 1030.42 1031.59 1032.48 1032.78 1032.93 1032.81 1032.51 1032.30 1032.25 1032.48 1032.41 1032.55 1032.79 1032.88 1032.97 1033.09 1033.56 1033.95 1033.85 1034.08 1034.01
1023.86 1024.41 1024.85 1025.30 1025.66 1026.07 1026.61 1027.26 1027.73 1027.97 1028.19 1028.55 1028.71 1028.41 1028.60 1028.28 1028.53 1028.79 1028.78 1029.51 1030.13 1030.47 1030.38 1030.82 1031.09 1031.70 1032.01 1032.19 1032.25 1032.12 1031.91 1032.06 1032.39 1032.70 1033.04 1033.17 1033.25 1033.38 1033.82 1033.83 1033.90 1034.06 1034.07
1022.51 1022.70 1023.25 1024.00 1024.81 1025.58 1026.07 1026.50 1026.88 1027.20 1027.57 1027.93 1028.18 1028.42 1029.20 1029.29 1028.79 1028.80 1028.79 1029.11 1029.46 1029.60 1029.84 1030.19 1030.48 1030.83 1031.22 1031.52 1031.79 1031.74 1031.57 1031.88 1032.31 1032.53 1032.83 1033.12 1033.32 1033.40 1033.69 1033.87 1033.96 1034.47 1034.70
1020.64 1021.34 1021.94 1022.63 1022.97 1023.48 1024.16 1024.82 1025.29 1025.87 1026.18 1026.44 1026.41 1026.84 1027.44 1027.76 1027.72 1028.00 1028.21 1028.45 1028.51 1028.62 1028.85 1029.30 1029.88 1030.44 1031.00 1031.34 1031.66 1031.67 1031.67 1031.68 1031.86 1032.15 1032.46 1032.72 1033.06 1033.37 1033.49 1033.50 1033.67 1033.97 1034.08
1019.53 1020.09 1020.79 1021.16 1021.61 1022.12 1022.45 1022.86 1023.46 1023.95 1024.35 1024.68 1024.87 1025.47 1025.94 1026.56 1026.73 1026.94 1027.20 1027.34 1027.34 1027.46 1027.70 1028.13 1028.69 1029.14 1029.56 1030.00 1030.48 1030.83 1030.94 1031.10 1031.49 1031.85 1032.20 1032.42 1032.54 1032.67 1032.97 1033.11 1033.19 1033.44 1033.84
1018.38 1018.84 1019.29 1019.76 1020.22 1020.73 1021.28 1021.69 1022.17 1022.58 1022.94 1023.29 1023.67 1024.33 1024.78 1024.83 1025.40 1025.70 1025.84 1026.04 1026.47 1026.89 1027.40 1027.69 1027.91 1028.40 1028.75 1029.06 1029.40 1029.65 1030.04 1030.12 1030.39 1030.83 1031.36 1031.85 1032.17 1032.25 1032.32 1032.61 1032.85 1033.17 1033.58
1017.16 1017.66 1017.98 1018.36 1018.88 1019.35 1019.83 1020.31 1020.77 1021.26 1021.73 1022.18 1022.57 1022.90 1023.20 1023.34 1023.65 1024.03 1024.49 1024.94 1025.60 1026.10 1026.58 1026.90 1027.12 1027.31 1027.73 1028.25 1028.60 1028.88 1029.12 1029.48 1029.88 1030.31 1030.59 1031.01 1031.25 1031.54 1031.68 1031.95 1032.23 1032.45 1032.82
1016.04 1016.41 1016.79 1017.13 1017.48 1017.78 1018.20 1018.64 1019.15 1019.79 1020.32 1020.79 1021.09 1021.44 1021.77 1022.18 1022.51 1022.84 1023.34 1023.90 1024.41 1024.95 1025.35 1025.79 1026.16 1026.42 1026.74 1027.10 1027.52 1027.92 1028.34 1028.73 1029.20 1029.55 1029.86 1030.32 1030.62 1030.86 1031.16 1031.40 1031.70 1031.96 1032.29
1015.22 1015.61 1015.84 1016.21 1016.46 1016.83 1017.16 1017.53 1017.90 1018.48 1018.92 1019.43 1019.81 1020.13 1020.50 1020.92 1021.23 1021.61 1022.03 1022.59 1023.09 1023.53 1023.94 1024.46 1024.88 1025.34 1025.81 1026.20 1026.59 1027.06 1027.51 1027.91 1028.40 1028.83 1029.25 1029.66 1029.99 1030.25 1030.53 1030.69 1031.09 1031.40 1031.65
Thickness
5493 5502 5507 5511 5516 5522 5528 5533 5541 5547 5553 5556 5560 5561 5561 5561 5564 5564 5565 5565 5562 5558 5556 5555 5551 5549 5546 5543 5543 5541 5537 5535 5534 5531 5525 5517 5514 5508 5509 5512 5511 5510 5509
5485 5489 5494 5500 5505 5512 5517 5522 5527 5534 5538 5542 5545 5547 5546 5546 5549 5548 5549 5548 5546 5544 5541 5540 5536 5535 5532 5532 5530 5526 5524 5520 5518 5515 5513 5506 5505 5502 5504 5506 5504 5502 5499
5489 5492 5493 5495 5500 5504 5508 5512 5518 5522 5524 5527 5529 5530 5529 5531 5531 5532 5531 5530 5530 5528 5525 5524 5521 5520 5518 5518 5516 5513 5513 5510 5506 5503 5499 5498 5497 5498 5500 5498 5495 5491 5490
5481 5483 5486 5488 5491 5496 5501 5505 5507 5509 5513 5515 5519 5517 5518 5517 5516 5515 5517 5516 5513 5513 5515 5508 5507 5508 5508 5503 5504 5501 5501 5503 5499 5494 5492 5489 5489 5491 5490 5487 5486 5482 5482
5476 5477 5478 5480 5483 5487 5491 5493 5495 5497 5499 5499 5501 5499 5501 5502 5502 5502 5503 5506 5504 5499 5495 5495 5497 5496 5494 5495 5494 5491 5493 5491 5489 5486 5483 5483 5479 5480 5477 5475 5473 5470 5472
5469 5473 5473 5474 5476 5478 5480 5482 5483 5483 5484 5484 5483 5484 5482 5483 5484 5486 5492 5491 5489 5486 5483 5486 5488 5487 5486 5488 5484 5481 5484 5484 5481 5479 5475 5473 5471 5468 5468 5464 5465 5462 5458
5464 5464 5466 5466 5468 5469 5470 5470 5468 5468 5468 5468 5468 5467 5463 5462 5464 5472 5475 5477 5477 5474 5476 5476 5475 5478 5479 5478 5478 5476 5475 5474 5473 5469 5469 5465 5463 5460 5457 5456 5454 5449 5444
5458 5459 5460 5462 5462 5461 5462 5460 5459 5459 5460 5460 5458 5454 5449 5447 5452 5458 5463 5465 5468 5465 5464 5464 5466 5471 5476 5476 5474 5470 5466 5466 5466 5463 5462 5458 5454 5450 5449 5446 5443 5440 5437
5454 5454 5457 5459 5459 5458 5457 5455 5454 5454 5454 5453 5449 5447 5447 5448 5446 5450 5456 5457 5462 5458 5458 5460 5465 5469 5468 5469 5469 5466 5463 5459 5456 5455 5453 5450 5444 5442 5442 5439 5435 5432 5420
5454 5454 5456 5457 5457 5457 5455 5453 5452 5451 5448 5445 5444 5444 5447 5449 5449 5452 5456 5457 5456 5456 5457 5456 5460 5462 5462 5463 5464 5461 5456 5452 5450 5446 5443 5439 5436 5435 5433 5430 5424 5419 5412
5458 5458 5458 5459 5458 5457 5455 5453 5451 5449 5446 5444 5445 5445 5448 5450 5453 5454 5456 5457 5455 5454 5452 5452 5454 5457 5459 5460 5457 5454 5451 5446 5441 5436 5434 5431 5428 5426 5422 5419 5415 5409 5400
5462 5460 5460 5460 5461 5460 5459 5456 5454 5452 5448 5445 5445 5446 5450 5452 5453 5456 5457 5455 5454 5452 5450 5450 5451 5452 5453 5451 5449 5446 5442 5437 5433 5430 5426 5423 5419 5416 5412 5408 5404 5400 5394
5464 5461 5460 5460 5461 5461 5460 5458 5455 5453 5451 5450 5449 5447 5448 5451 5455 5456 5455 5454 5452 5450 5449 5449 5448 5447 5446 5444 5441 5438 5434 5431 5428 5423 5418 5413 5408 5406 5403 5400 5397 5391 5384
5467 5466 5466 5465 5464 5463 5463 5460 5457 5454 5452 5451 5449 5448 5447 5448 5450 5450 5450 5450 5449 5447 5446 5446 5445 5443 5439 5434 5431 5428 5426 5424 5419 5415 5410 5406 5402 5397 5392 5389 5384 5382 5373
5474 5471 5470 5469 5467 5465 5464 5462 5461 5458 5456 5451 5449 5449 5446 5444 5448 5449 5448 5446 5444 5443 5441 5439 5435 5430 5425 5420 5418 5416 5416 5415 5411 5406 5402 5398 5390 5384 5380 5378 5374 5367 5359
5480 5477 5475 5471 5467 5465 5462 5460 5462 5460 5459 5459 5457 5454 5452 5452 5452 5450 5448 5446 5444 5442 5435 5425 5420 5415 5412 5408 5405 5406 5405 5402 5400 5395 5391 5387 5378 5371 5366 5363 5360 5354 5345
5483 5480 5476 5472 5469 5465 5461 5461 5460 5460 5459 5457 5456 5454 5452 5451 5449 5446 5445 5444 5442 5438 5426 5417 5411 5405 5402 5400 5398 5400 5396 5390 5388 5383 5378 5372 5364 5360 5357 5348 5343 5338 5333
5480 5477 5475 5473 5470 5467 5465 5461 5456 5455 5453 5449 5451 5450 5448 5445 5442 5439 5436 5433 5426 5426 5420 5414 5406 5400 5395 5393 5393 5391 5385 5379 5376 5368 5362 5357 5350 5345 5339 5334 5327 5322 5317
5483 5479 5475 5471 5468 5465 5460 5455 5452 5446 5442 5438 5437 5441 5440 5438 5435 5431 5429 5420 5416 5413 5413 5409 5405 5398 5393 5389 5386 5382 5379 5372 5365 5359 5352 5346 5340 5334 5327 5321 5316 5310 5307
5484 5482 5478 5472 5466 5460 5455 5454 5449 5446 5442 5439 5434 5432 5427 5426 5423 5419 5417 5414 5411 5409 5405 5402 5398 5393 5388 5383 5378 5374 5371 5362 5354 5348 5343 5337 5332 5326 5317 5310 5303 5299 5292
5485 5480 5475 5470 5469 5465 5460 5455 5451 5446 5444 5442 5439 5432 5428 5424 5421 5416 5413 5409 5407 5404 5400 5394 5387 5381 5376 5371 5365 5361 5355 5350 5344 5338 5333 5327 5320 5313 5307 5302 5295 5287 5283
5478 5475 5469 5467 5464 5461 5459 5454 5450 5445 5442 5439 5435 5426 5425 5418 5414 5410 5407 5403 5401 5397 5394 5388 5381 5375 5369 5362 5356 5350 5344 5338 5331 5325 5321 5316 5310 5305 5298 5293 5288 5281 5274
5471 5469 5467 5463 5459 5455 5450 5448 5444 5440 5436 5433 5428 5421 5416 5416 5408 5403 5401 5397 5392 5387 5381 5376 5370 5364 5359 5353 5347 5341 5335 5329 5324 5318 5312 5306 5299 5295 5289 5283 5277 5272 5266
5464 5461 5460 5457 5454 5450 5446 5442 5438 5433 5428 5424 5419 5415 5411 5409 5404 5399 5393 5387 5381 5375 5370 5364 5358 5353 5348 5342 5336 5331 5325 5319 5312 5307 5302 5296 5290 5285 5280 5274 5268 5264 5259
5456 5455 5452 5450 5447 5444 5441 5438 5434 5428 5423 5416 5412 5407 5404 5399 5394 5389 5383 5377 5371 5366 5360 5353 5347 5342 5337 5331 5326 5320 5313 5307 5301 5297 5292 5285 5279 5274 5268 5264 5259 5253 5249
5447 5443 5442 5439 5436 5432 5429 5427 5424 5418 5414 5407 5402 5398 5393 5388 5384 5379 5374 5367 5361 5356 5350 5344 5338 5332 5326 5320 5314 5307 5302 5296 5290 5285 5280 5273 5267 5262 5258 5255 5249 5243 5239